This is the latest recevied weather packets stored in our database for station/object DL8GAK-13. If no packets are shown the sender has not sent any weather packets the latest 10 day(s).
| Time | Temp. | Humidity | Pressure | Rain* | Wind** | Luminosity | Snow |
|---|---|---|---|---|---|---|---|
| 1787410189 | 17.78° C | 75% | 1028.7 hPa | - | - | - | - |
| 1787409588 | 18.33° C | 75% | 1028.6 hPa | - | - | - | - |
| 1787408987 | 18.33° C | 75% | 1028.5 hPa | - | - | - | - |
| 1787408387 | 18.33° C | 74% | 1028.4 hPa | - | - | - | - |
| 1787407786 | 18.33° C | 73% | 1028.3 hPa | - | - | - | - |
| 1787407185 | 18.33° C | 73% | 1028.1 hPa | - | - | - | - |
| 1787406584 | 18.89° C | 72% | 1028.1 hPa | - | - | - | - |
| 1787405983 | 20° C | 71% | 1028.1 hPa | - | - | - | - |
| 1787405382 | 20.56° C | 72% | 1027.9 hPa | - | - | - | - |
| 1787404781 | 20° C | 73% | 1027.7 hPa | - | - | - | - |
| 1787404180 | 19.44° C | 75% | 1027.7 hPa | - | - | - | - |
| 1787403579 | 19.44° C | 76% | 1027.9 hPa | - | - | - | - |
| 1787402979 | 18.89° C | 77% | 1027.9 hPa | - | - | - | - |
| 1787402378 | 18.33° C | 77% | 1027.9 hPa | - | - | - | - |
| 1787401777 | 17.78° C | 77% | 1027.9 hPa | - | - | - | - |
| 1787401176 | 18.33° C | 77% | 1028.1 hPa | - | - | - | - |
| 1787400575 | 18.33° C | 78% | 1027.9 hPa | - | - | - | - |
| 1787399974 | 18.89° C | 80% | 1027.9 hPa | - | - | - | - |
| 1787399373 | 18.89° C | 81% | 1027.9 hPa | - | - | - | - |
| 1787398772 | 18.33° C | 81% | 1027.9 hPa | - | - | - | - |
| 1787398172 | 17.78° C | 82% | 1027.8 hPa | - | - | - | - |
| 1787397571 | 16.67° C | 80% | 1027.8 hPa | - | - | - | - |
| 1787396970 | 16.67° C | 80% | 1027.8 hPa | - | - | - | - |
| 1787396369 | 17.22° C | 79% | 1027.8 hPa | - | - | - | - |
| 1787395768 | 17.22° C | 78% | 1027.7 hPa | - | - | - | - |
* Rain since midnight (hover to see other rain measurements)
** Current wind speed in m/s (hover to see current wind gust speed)